Flag for Albania Weather past 2 weeks in Tirana, Albania

Now
46 °F

Passing clouds.


Feels Like: 45 °F
Forecast: 50 / 65 °F
Wind: 3 mph from South

Location: Tirana Airport

Current Time: Apr 27, 2015 at 6:44:30 AM

Latest Report: Apr 27, 2015 at 6:20 AM


Visibility: N/A

Pressure: 29.98 "Hg

Humidity: 82%

Dew point: 41 °F

Location of TiranaLocation

Historic Weather in Tirana — Graph

°F

Tirana temperature yesterday

Maximum temperature yesterday: 73 °F (at 3:50 PM)
Minimum temperature yesterday: 46 °F (at 3:20 AM)
Average temperature yesterday: 59 °F

Past Weeks' High & Low Weather Summary

 TemperatureHumidityPressure
High73 °F (Apr 15, 2:50 PM)94% (Apr 12, 10:20 PM)30.36 "Hg (Apr 12, 10:20 PM)
Low41 °F (Apr 12, 6:20 AM)19% (Apr 15, 2:20 PM)29.89 "Hg (Apr 18, 3:20 PM)
Average58 °F61%30.10 "Hg
* Reported Apr 12 5:20 AM — Apr 27 5:20 AM, Tirana, Weather by CustomWeather, © 2015

Note: Actual official high and low records may vary slightly from our data, if they occured in-between our weather recording intervals... More about our weather records

Advertising

Tirana weather history for previous 24 hours

 ConditionsComfort  
Time TempWeatherWind HumidityBarometerVisibility
5:20 AM
Mon, Apr 27
50 °FPassing clouds.3 mph82%29.95 "HgN/A
4:50 AM46 °FPassing clouds.2 mph87%29.95 "HgN/A
4:20 AM48 °FClear.5 mph82%29.98 "Hg10 mi
3:50 AM48 °FClear.3 mph82%29.95 "Hg10 mi
3:20 AM48 °FClear.3 mph82%29.98 "Hg10 mi
2:50 AM50 °FClear.5 mph82%29.98 "Hg10 mi
2:20 AM50 °FPassing clouds.5 mph82%29.98 "HgN/A
1:50 AM50 °FPassing clouds.3 mph82%29.98 "HgN/A
1:20 AM48 °FPassing clouds.3 mph82%29.98 "HgN/A
12:50 AM54 °FPassing clouds.3 mph72%29.98 "HgN/A
12:20 AM50 °FClear.No wind88%29.98 "Hg10 mi
11:50 PM
Sun, Apr 26
52 °FClear.2 mph72%29.98 "Hg10 mi
11:20 PM54 °FClear.2 mph72%29.98 "Hg10 mi
10:50 PM54 °FClear.5 mph72%29.98 "Hg10 mi
10:20 PM54 °FClear.5 mph67%29.98 "Hg10 mi
9:50 PM54 °FClear.3 mph72%29.98 "Hg10 mi
9:20 PM54 °FClear.2 mph77%29.98 "Hg10 mi
8:50 PM57 °FClear.No wind67%29.98 "Hg10 mi
8:20 PM59 °FSunny.No wind59%29.98 "Hg10 mi
7:50 PM61 °FSunny.5 mph55%29.98 "Hg10 mi
7:20 PM63 °FSunny.3 mph52%29.95 "Hg10 mi
6:50 PM66 °FSunny.7 mph43%29.95 "Hg10 mi
6:20 PM68 °FSunny.9 mph43%29.95 "Hg10 mi
5:50 PM70 °FSunny.9 mph38%29.95 "Hg10 mi
5:20 PM70 °FScattered clouds.9 mph40%29.95 "HgN/A
4:50 PM70 °FScattered clouds.12 mph40%29.95 "HgN/A
4:20 PM72 °FScattered clouds.12 mph38%29.95 "HgN/A
3:50 PM73 °FScattered clouds.9 mph36%29.95 "HgN/A
3:20 PM72 °FScattered clouds.7 mph33%29.95 "HgN/A
2:50 PM72 °FScattered clouds.6 mph38%29.95 "HgN/A
2:20 PM72 °FScattered clouds.8 mph36%29.98 "HgN/A
1:50 PM70 °FScattered clouds.7 mph43%29.98 "HgN/A
1:20 PM72 °FScattered clouds.3 mph33%29.98 "HgN/A
12:50 PM70 °FBroken clouds.3 mph29%29.98 "HgN/A
12:20 PM70 °FPartly sunny.2 mph33%29.98 "HgN/A
11:50 AM70 °FBroken clouds.No wind31%30.01 "HgN/A
11:20 AM70 °FBroken clouds.No wind33%30.01 "HgN/A
10:50 AM70 °FPartly sunny.No wind33%30.01 "HgN/A
10:20 AM68 °FPartly sunny.2 mph35%30.01 "HgN/A
9:50 AM66 °FSunny.2 mph46%30.01 "Hg10 mi
9:20 AM64 °FSunny.2 mph49%30.01 "Hg10 mi
8:50 AM61 °FSunny.2 mph55%30.04 "Hg10 mi
8:20 AM57 °FSunny.5 mph67%30.04 "Hg10 mi
7:50 AM54 °FSunny.5 mph77%30.01 "Hg10 mi
7:20 AM50 °FSunny.3 mph88%30.04 "Hg10 mi
6:50 AM46 °FSunny.2 mph93%30.04 "Hg10 mi
6:20 AM46 °FClear.2 mph87%30.04 "Hg10 mi
Weather by CustomWeather, © 2015

See weather overviewHow to use our weather pages